Regional Weather Roundup
Issued by NWS Huntsville, AL

Home | Current Version | Previous Version | Text Only | Print | Product List | Glossary On
Versions: 1 2 3 4 5 6 7 8 9 10 11 12 13 14 15 16 17 18 19 20 21 22 23 24 25 26 27
000
ASUS44 KHUN 221010
RWRHUN

WEATHER ROUNDUP FOR THE TENNESSEE VALLEY
NATIONAL WEATHER SERVICE HUNTSVILLE AL
500 AM CDT SUN OCT 22 2017

ALZ001>004-221100-
NORTHWEST ALABAMA

CITY           SKY/WX    TMP DP  RH WIND       PRES   REMARKS
COURTLAND HCN    N/A     63 N/A N/A SE5         N/A
RUSSELLVILLE     N/A     64 N/A N/A MISG        N/A
SHOALS AIRPORT MOCLDY    64  57  78 SE6       30.14R
SHOALS TVA RES   N/A     64 N/A N/A MISG        N/A
$$

ALZ005>007-016-221100-
NORTH CENTRAL ALABAMA

CITY           SKY/WX    TMP DP  RH WIND       PRES   REMARKS
CULLMAN AG STN   N/A     61 N/A N/A E6          N/A
DECATUR AP     MOCLDY    64  57  78 SE7       30.14S
HUNTSVILLE AP  MOCLDY    63  57  81 E10       30.15R
MERIDIANVILLE  MOCLDY    64  54  68 SE10      30.15S
REDSTONE ARSN  MOCLDY    64  56  76 S7        30.14R
VINEMONT AP    FAIR      61  55  79 SE5       30.17S
$$

ALZ008>010-221100-
NORTHEAST ALABAMA

CITY           SKY/WX    TMP DP  RH WIND       PRES   REMARKS
ALBERTVILLE    PTCLDY    59  59 100 E3        30.18S
FORT PAYNE     PTCLDY    63  52  67 SE5       30.21R
SCOTTSBORO AP  PTCLDY    55  55 100 CALM      30.19S
SCOTTSBORO HCN   N/A     55 N/A N/A MISG        N/A
VALLEY HEAD      N/A     57 N/A N/A MISG        N/A
$$

TNZ076-096-097-221100-
SOUTHEASTERN MIDDLE TENNESSEE

CITY           SKY/WX    TMP DP  RH WIND       PRES   REMARKS
TULLAHOMA      CLEAR     64  52  63 SE14      30.17S
WINCHESTER     CLEAR     63  54  72 S8          N/A
$$

...SURROUNDING SITES...

CITY           SKY/WX    TMP DP  RH WIND       PRES   REMARKS
ATLANTA        PTCLDY    59  56  89 E10       30.24R
ANNISTON       PTCLDY    59  55  87 NE3       30.20S
BIRMINGHAM     CLOUDY    66  59  78 E7        30.17F
CHATTANOOGA    MOCLDY    54  51  90 CALM      30.23R
CORINTH        FAIR      68  59  73 S9        30.07R
DALTON         MOCLDY    52  52 100 CALM      30.24S
GADSDEN        PTCLDY    57  56  96 E3        30.20R
GOLDEN TRNGL   MOCLDY    67  63  87 SE12      30.07R
HALEYVILLE     FAIR      64  60  87 SE8       30.15R
JACKSON TN     MOCLDY    69  62  78 S9G16     30.05R
MEMPHIS        CLOUDY    70  64  81 S9        30.01R
NASHVILLE      MOCLDY    64  52  64 SE10      30.13F
ROME           MOCLDY    53  53 100 CALM      30.22S
SAVANNAH       MOCLDY    68  61  77 SE7G13    30.07S
SELMER         CLEAR     68  61  77 SE9       30.06S
TUPELO         CLOUDY    68  60  75 E9        30.07R
TUSCALOOSA     PTCLDY    66  62  87 SE5       30.11S
$$

...GULF COAST WEATHER...

CITY           SKY/WX    TMP DP  RH WIND       PRES   REMARKS
GULFPORT       CLOUDY    74  70  87 N5        30.03S
PASCAGOULA     MOCLDY    71  67  87 E3        30.04F
MOBILE         CLOUDY    70  67  90 E6        30.07S
GULF SHORES    CLOUDY    77  73  86 E13       30.05S
PENSACOLA      CLOUDY    77  71  82 E14       30.07R
DESTIN         CLEAR     72  63  73 E5        30.10R
PANAMA CITY    CLEAR     69  65  88 E9        30.10S
APPALACHICOLA  MOCLDY    75  73  93 E9        30.10R
$$





USA.gov is the U.S. government's official web portal to all federal, state and local government web resources and services.